Location: Ostrava
(49.8330°N, 18.2830°E)
Time: 08:00:40
(UTC+02:00)

Explorer 7 - Visible Passes

Search period start: 04 May 2015 00:00
Search period end: 14 May 2015 00:00
Orbit: 489 x 695 km, 50.3° (Epoch: 03 May)

Date Brightness Start Highest point End Pass type
(mag) Time Alt. Az. Time Alt. Az. Time Alt. Az.
04 May 8.2 04:17:45 10° SSW 04:21:38 33° SE 04:25:50 10° E visible
05 May 9.2 02:48:54 12° SE 02:49:40 13° SE 02:51:39 10° ESE visible
05 May 7.7 04:25:25 10° SW 04:29:36 46° SSE 04:34:06 10° E visible
06 May 8.6 02:56:30 18° SSE 02:57:28 19° SE 03:00:44 10° E visible
06 May 7.3 04:33:18 10° WSW 04:37:38 62° SSE 04:42:17 10° ENE visible
07 May 8.1 03:04:03 24° S 03:05:20 28° SE 03:09:15 10° E visible
08 May 7.6 03:11:34 28° SSW 03:13:16 40° SSE 03:17:33 10° E visible
09 May 9.1 01:42:31 15° ESE 01:42:31 15° ESE 01:43:58 10° E visible
09 May 7.2 03:19:01 26° SW 03:21:16 56° SSE 03:25:44 10° ENE visible
10 May 8.5 01:49:57 23° ESE 01:49:57 23° ESE 01:52:37 10° E visible
10 May 7.0 03:26:26 20° WSW 03:29:19 72° SSE 03:33:54 10° ENE visible
11 May 7.7 01:57:19 35° SE 01:57:19 35° SE 02:00:58 10° E visible
11 May 6.9 03:33:48 14° WSW 03:37:25 86° S 03:42:02 10° E visible
12 May 7.1 02:04:39 49° SSE 02:04:53 50° SSE 02:09:10 10° E visible
12 May 7.0 03:41:15 10° W 03:45:33 86° N 03:50:10 10° E visible
13 May 9.3 00:35:28 12° E 00:35:28 12° E 00:35:56 10° E visible
13 May 6.8 02:11:56 48° SW 02:12:55 66° SSE 02:17:19 10° ENE visible
13 May 7.1 03:49:23 10° W 03:53:42 83° N 03:58:20 10° E visible
